Weather Roundup
Issued by NWS

Home | Current Version | Previous Version | Text Only | Print | Product List | Glossary On
Versions: 1 2 3 4 5 6 7 8 9 10 11 12 13 14 15 16 17 18 19 20 21 22 23 24 25 26 27 28 29 30 31 32 33 34 35 36 37 38 39 40 41 42 43 44 45 46 47 48 49 50
000
NZUS93 KARX 222010
HRRWXR

CURRENT HOURLY OBSERVATIONS ACROSS
MUCH OF THE UPPER MISSISSIPPI VALLEY
NATIONAL WEATHER SERVICE LA CROSSE WI
300 PM CDT FRI AUG 22 2014


...SOUTHEAST MINNESOTA...


CITY           SKY/WX    TMP DP  RH WIND       PRES   REMARKS
ROCHESTER      MOSUNNY   83  71  67 VRB6      29.97F
ROCHESTER/MAYO MOCLDY    81  67  61 W9        29.97F
WINONA         MOSUNNY   82  72  69 CALM      29.93F
AUSTIN         MOSUNNY   82  72  69 N6        29.96F
ALBERT LEA     SUNNY     82  70  65 NW6       29.96F
DODGE CENTER   PTSUNNY   79  70  73 N5        29.98F
PRESTON        MOSUNNY   82  75  78 NW7       29.96F
OWATONNA       MOSUNNY   81  68  65 CALM      29.97F
FARIBAULT      MOSUNNY   84  64  51 CALM      29.97F
$$

...ELSEWHERE IN MINNESOTA...


CITY           SKY/WX    TMP DP  RH WIND       PRES   REMARKS
MINNEAPOLIS    CLOUDY    78  68  71 NW6       29.97F
INTNL FALLS    CLOUDY    73  64  73 N8        30.00S
DULUTH         CLOUDY    66  62  87 SE6       30.01F FOG
RED WING       CLOUDY    81  70  69 NW5       29.94F
REDWOOD FALLS  MOSUNNY   85  68  56 VRB5      29.97F
MANKATO        MOSUNNY   81  66  61 E3        29.97F
WORTHINGTON      N/A     81  70  69 NE7       30.00F
FAIRMONT       MOSUNNY   81  70  69 NE6       29.98F
$$

...SOUTHWEST WISCONSIN...


CITY           SKY/WX    TMP DP  RH WIND       PRES   REMARKS
LA CROSSE      CLOUDY    82  74  76 SW3       29.92F
PRAIRIE DU CHI SUNNY     88  72  58 CALM      29.90F HX  94
BOSCOBEL       MOSUNNY   90  73  57 NW6       29.91F HX  98
LONE ROCK      PTSUNNY   93  74  53 VRB5      29.91S HX 103
PLATTEVILLE    MOSUNNY   85  78  79 CALM      29.94S HX  95
FORT MC COY    MOSUNNY   84  73  67 W9        29.94F HX  90
CAMP DOUGLAS   MOSUNNY   87  76  69 W7        29.93F HX  98
VIROQUA        FAIR      84  77  79 W3        29.95F HX  93
WIS DELLS      MOSUNNY   89  69  50 SW3       29.93S HX  93
$$

...ELSEWHERE IN WISCONSIN...


CITY           SKY/WX    TMP DP  RH WIND       PRES   REMARKS
MILWAUKEE      MOSUNNY   83  73  72 CALM      29.93F
MADISON        MOSUNNY   86  73  65 S6        29.92F HX  93
GREEN BAY      PTSUNNY   82  72  71 CALM      29.94F
EAU CLAIRE     PTSUNNY   84  71  65 W9        29.94S
BLACK RVR FLS  CLOUDY    81  74  77 SW5       29.94S
MEDFORD        CLOUDY    74  73  97 CALM      29.97F FOG
WAUSAU         LGT RAIN  81  73  76 NW5       29.94F
WIS RAPIDS     MOSUNNY   86  73  65 SW9       29.95S HX  93
MARSHFIELD     LGT RAIN  79  74  84 SW6       29.96S
RICE LAKE      CLOUDY    78  71  78 W8        29.98S
$$

...NORTHEAST IOWA...


CITY           SKY/WX    TMP DP  RH WIND       PRES   REMARKS
WATERLOO       PTSUNNY   89  74  60 S7        29.90F HX  98
DUBUQUE        PTSUNNY   84  77  79 SW5       29.93F HX  94
DECORAH        PTSUNNY   84  77  79 VRB5      29.93F HX  94
MASON CITY     CLOUDY    86  72  62 NE5       29.97F HX  92
CHARLES CITY   PTSUNNY   82  75  78 NW6       29.96F
OELWEIN        MOSUNNY   88  75  66 CALM      29.93F HX  97
$$

...ELSEWHERE IN IOWA...


CITY           SKY/WX    TMP DP  RH WIND       PRES   REMARKS
DES MOINES     CLOUDY    88  78  72 CALM      29.91F HX 101
IOWA CITY      MOSUNNY   86  74  67 S7        29.93F HX  94
FORT DODGE     PTSUNNY   84  75  74 NE9       29.95F HX  92
MARSHALLTOWN   MOSUNNY   87  75  67 VRB3      29.93S HX  96
CEDAR RAPIDS   MOSUNNY   85  77  77 S8        29.92F HX  95
$$

...NORTHERN ILLINOIS...


CITY           SKY/WX    TMP DP  RH WIND       PRES   REMARKS
CHICAGO-OHARE  PTSUNNY   85  68  56 SW5       29.92F
DUPAGE         PTSUNNY   83  71  67 W8        29.93F
CHICAGO-MIDWAY PTSUNNY   86  71  60 SW10      29.92F HX  91
MOLINE         MOSUNNY   87  73  62 SW10      29.92F HX  94
ROCKFORD       PTSUNNY   84  75  74 W7        29.94F HX  92
STERLING       PTSUNNY   84  73  70 W12       29.94F HX  91
PEORIA         PTSUNNY   85  73  67 SW12      29.94R HX  91
$$

NOTE: "FAIR" INDICATES FEW OR NO CLOUDS BELOW 12,000 FEET WITH NO
SIGNIFICANT WEATHER AND/OR OBSTRUCTIONS TO VISIBILITY. WIND
SPEEDS ARE IN MILES-PER-HOUR.



USA.gov is the U.S. government's official web portal to all federal, state and local government web resources and services.